When you browse on this site, cookies collect data to enhance your experience and personalize the content and advertising you see.
Visit our Privacy Policy to learn more. By continuing to use the site, you agree to this use of cookies and data.
  • In Switzerland
  • List of Countries
  • For 7 days
  • Water Temperature
  • Satellite Maps
  • Weather Map
  • Weather Widgets
  • user-avatar
    Login

    Hourly Weather Xinzhou

    Today, 23 May, Thursday

    Time Temperature Precipitation Wind Pressure Humidity
    00:00 +24°C° 0 mm 2 mps 688 mmHg 16%
    01:00 +23°C° 0 mm 2 mps 688 mmHg 16%
    02:00 +23°C° 0 mm 2 mps 688 mmHg 16%
    03:00 +21°C° 0 mm 2 mps 689 mmHg 17%
    04:00 +21°C° 0 mm 2 mps 689 mmHg 17%
    05:00 +21°C° 0 mm 1 mps 689 mmHg 17%
    06:00 +23°C° 0 mm 1 mps 689 mmHg 16%
    07:00 +25°C° 0 mm 1 mps 690 mmHg 16%
    08:00 +27°C° 0 mm 1 mps 690 mmHg 15%
    09:00 +29°C° 0 mm 1 mps 690 mmHg 13%
    10:00 +31°C° 0 mm 1 mps 690 mmHg 12%
    11:00 +34°C° 0 mm 2 mps 691 mmHg 10%
    12:00 +35°C° 0 mm 2 mps 690 mmHg 9%
    13:00 +36°C° 0 mm 3 mps 690 mmHg 8%
    14:00 +37°C° 0 mm 3 mps 690 mmHg 7%
    15:00 +37°C° 0 mm 3 mps 689 mmHg 7%
    16:00 +37°C° 0 mm 4 mps 689 mmHg 8%
    17:00 +37°C° 0 mm 4 mps 689 mmHg 8%
    18:00 +34°C° 0 mm 3 mps 688 mmHg 9%
    19:00 +31°C° 0 mm 3 mps 688 mmHg 11%
    20:00 +29°C° 0 mm 2 mps 688 mmHg 13%
    21:00 +28°C° 0 mm 2 mps 688 mmHg 14%
    22:00 +27°C° 0 mm 2 mps 688 mmHg 14%
    23:00 +26°C° 0 mm 2 mps 688 mmHg 15%

    Tomorrow, 24 May, Friday

    Time Temperature Precipitation Wind Pressure Humidity
    00:00 +26°C° 0 mm 2 mps 688 mmHg 17%
    01:00 +25°C° 0 mm 2 mps 688 mmHg 19%
    02:00 +24°C° 0 mm 2 mps 688 mmHg 21%
    03:00 +24°C° 0 mm 2 mps 687 mmHg 23%
    04:00 +23°C° 0 mm 1 mps 687 mmHg 25%
    05:00 +23°C° 0 mm 1 mps 687 mmHg 27%
    06:00 +24°C° 0 mm 1 mps 687 mmHg 27%
    07:00 +25°C° 0 mm 1 mps 687 mmHg 28%
    08:00 +26°C° 0 mm 1 mps 687 mmHg 28%
    09:00 +27°C° 0 mm 2 mps 688 mmHg 26%
    10:00 +29°C° 0 mm 2 mps 688 mmHg 23%
    11:00 +30°C° 0 mm 3 mps 688 mmHg 21%
    12:00 +31°C° 0 mm 3 mps 688 mmHg 19%
    13:00 +33°C° 0 mm 3 mps 688 mmHg 17%
    14:00 +34°C° 0 mm 3 mps 687 mmHg 15%
    15:00 +34°C° 0 mm 3 mps 687 mmHg 17%
    16:00 +33°C° 0 mm 4 mps 687 mmHg 20%
    17:00 +33°C° 0 mm 4 mps 686 mmHg 22%
    18:00 +30°C° 0.3 mm 3 mps 686 mmHg 28%
    19:00 +28°C° 0.3 mm 2 mps 686 mmHg 35%
    20:00 +27°C° 0.3 mm 1 mps 686 mmHg 42%
    21:00 +26°C° 0.7 mm 1 mps 686 mmHg 46%
    22:00 +25°C° 0.7 mm 1 mps 686 mmHg 49%
    23:00 +24°C° 0.7 mm 1 mps 687 mmHg 53%

    Day after tomorrow, 25 May, Saturday

    Time Temperature Precipitation Wind Pressure Humidity
    00:00 +24°C° 0 mm 1 mps 686 mmHg 53%
    01:00 +23°C° 0 mm 1 mps 686 mmHg 54%
    02:00 +23°C° 0 mm 1 mps 686 mmHg 55%
    03:00 +22°C° 0 mm 1 mps 686 mmHg 56%
    04:00 +22°C° 0 mm 1 mps 686 mmHg 57%
    05:00 +22°C° 0 mm 1 mps 686 mmHg 59%
    06:00 +23°C° 0 mm 1 mps 686 mmHg 54%
    07:00 +25°C° 0 mm 1 mps 687 mmHg 49%
    08:00 +26°C° 0 mm 1 mps 687 mmHg 44%
    09:00 +28°C° 0 mm 1 mps 687 mmHg 40%
    10:00 +30°C° 0 mm 1 mps 688 mmHg 36%
    11:00 +31°C° 0 mm 2 mps 688 mmHg 33%
    12:00 +32°C° 0 mm 2 mps 688 mmHg 30%
    13:00 +34°C° 0 mm 2 mps 687 mmHg 28%
    14:00 +35°C° 0 mm 2 mps 687 mmHg 26%
    15:00 +35°C° 0 mm 2 mps 687 mmHg 26%
    16:00 +35°C° 0 mm 3 mps 686 mmHg 26%
    17:00 +35°C° 0 mm 4 mps 686 mmHg 26%
    18:00 +33°C° 0 mm 3 mps 686 mmHg 31%
    19:00 +31°C° 0 mm 2 mps 686 mmHg 36%
    20:00 +29°C° 0 mm 1 mps 686 mmHg 41%
    21:00 +28°C° 0.6 mm 1 mps 686 mmHg 45%
    22:00 +28°C° 0.6 mm 1 mps 687 mmHg 49%
    23:00 +27°C° 0.6 mm 1 mps 687 mmHg 54%

    26 May, Sunday

    Time Temperature Precipitation Wind Pressure Humidity
    00:00 +26°C° 0.3 mm 1 mps 687 mmHg 55%
    01:00 +26°C° 0.3 mm 1 mps 687 mmHg 57%
    02:00 +25°C° 0.3 mm 1 mps 686 mmHg 58%
    03:00 +25°C° 0.4 mm 2 mps 687 mmHg 60%
    04:00 +24°C° 0.4 mm 3 mps 687 mmHg 61%
    05:00 +22°C° 0.4 mm 4 mps 688 mmHg 63%
    06:00 +22°C° 0 mm 5 mps 688 mmHg 53%
    07:00 +21°C° 0 mm 6 mps 689 mmHg 44%
    08:00 +21°C° 0 mm 8 mps 690 mmHg 35%
    09:00 +22°C° 0 mm 7 mps 690 mmHg 33%
    10:00 +24°C° 0 mm 6 mps 691 mmHg 30%
    11:00 +26°C° 0 mm 6 mps 691 mmHg 28%
    12:00 +27°C° 0 mm 7 mps 691 mmHg 24%
    13:00 +28°C° 0 mm 7 mps 691 mmHg 21%
    14:00 +28°C° 0 mm 8 mps 691 mmHg 18%
    15:00 +27°C° 0 mm 8 mps 691 mmHg 19%
    16:00 +26°C° 0 mm 9 mps 691 mmHg 20%
    17:00 +24°C° 0 mm 10 mps 691 mmHg 22%
    18:00 +22°C° 0 mm 9 mps 691 mmHg 25%
    19:00 +20°C° 0 mm 8 mps 692 mmHg 29%
    20:00 +17°C° 0 mm 8 mps 693 mmHg 32%
    21:00 +16°C° 0 mm 7 mps 693 mmHg 34%
    22:00 +15°C° 0 mm 6 mps 694 mmHg 37%
    23:00 +15°C° 0 mm 6 mps 695 mmHg 39%

    27 May, Monday

    Time Temperature Precipitation Wind Pressure Humidity
    00:00 +14°C° 0 mm 5 mps 695 mmHg 39%
    01:00 +13°C° 0 mm 4 mps 695 mmHg 39%
    02:00 +13°C° 0 mm 3 mps 695 mmHg 38%
    03:00 +12°C° 0 mm 3 mps 695 mmHg 37%
    04:00 +12°C° 0 mm 3 mps 696 mmHg 35%
    05:00 +12°C° 0 mm 2 mps 696 mmHg 33%
    06:00 +13°C° 0 mm 3 mps 696 mmHg 30%
    07:00 +14°C° 0 mm 5 mps 697 mmHg 27%
    08:00 +16°C° 0 mm 6 mps 697 mmHg 24%
    09:00 +17°C° 0 mm 6 mps 697 mmHg 23%
    10:00 +19°C° 0 mm 6 mps 698 mmHg 22%
    11:00 +21°C° 0 mm 5 mps 698 mmHg 20%
    12:00 +22°C° 0 mm 5 mps 697 mmHg 19%
    13:00 +23°C° 0 mm 4 mps 697 mmHg 18%
    14:00 +25°C° 0 mm 4 mps 696 mmHg 16%
    15:00 +25°C° 0 mm 3 mps 696 mmHg 16%
    16:00 +25°C° 0 mm 3 mps 695 mmHg 16%
    17:00 +25°C° 0 mm 2 mps 695 mmHg 16%
    18:00 +24°C° 0 mm 2 mps 695 mmHg 18%
    19:00 +21°C° 0 mm 2 mps 695 mmHg 20%
    20:00 +20°C° 0 mm 1 mps 695 mmHg 22%
    21:00 +20°C° 0 mm 1 mps 695 mmHg 22%
    22:00 +19°C° 0 mm 1 mps 695 mmHg 23%
    23:00 +18°C° 0 mm 1 mps 695 mmHg 23%

    28 May, Tuesday

    Time Temperature Precipitation Wind Pressure Humidity
    00:00 +18°C° 0 mm 1 mps 695 mmHg 24%
    01:00 +18°C° 0 mm 1 mps 694 mmHg 24%
    02:00 +16°C° 0 mm 1 mps 694 mmHg 24%
    03:00 +16°C° 0 mm 1 mps 694 mmHg 25%
    04:00 +16°C° 0 mm 1 mps 694 mmHg 26%
    05:00 +15°C° 0 mm 1 mps 694 mmHg 26%
    06:00 +18°C° 0 mm 1 mps 694 mmHg 25%
    07:00 +20°C° 0 mm 1 mps 695 mmHg 24%
    08:00 +22°C° 0 mm 1 mps 695 mmHg 22%
    09:00 +23°C° 0 mm 1 mps 695 mmHg 20%
    10:00 +24°C° 0 mm 2 mps 695 mmHg 18%
    11:00 +26°C° 0 mm 2 mps 695 mmHg 16%
    12:00 +27°C° 0 mm 2 mps 694 mmHg 15%
    13:00 +28°C° 0 mm 2 mps 694 mmHg 14%
    14:00 +29°C° 0 mm 2 mps 693 mmHg 14%
    15:00 +29°C° 0 mm 2 mps 693 mmHg 14%
    16:00 +29°C° 0 mm 2 mps 693 mmHg 14%
    17:00 +29°C° 0 mm 2 mps 692 mmHg 13%
    18:00 +28°C° 0 mm 2 mps 692 mmHg 16%
    19:00 +26°C° 0 mm 2 mps 692 mmHg 18%
    20:00 +25°C° 0 mm 1 mps 691 mmHg 20%
    21:00 +24°C° 0 mm 2 mps 691 mmHg 22%
    22:00 +23°C° 0 mm 2 mps 691 mmHg 24%
    23:00 +21°C° 0 mm 2 mps 691 mmHg 26%
    Show more